UOSAT 2 (UO-11) (14781 NORAD) Tracking and Keplerian Element Data

This shows tracking and keplerian element data for the satellite.

Feedback or suggestion? Click here.




ElementValue
Catalog14781
NameUOSAT 2 (UO-11)
Epoch Orbit97125
Epoch Day293.76039552
Epoch Year2020
RAAN299.5531
Inclination97.5908
Eccentricity0.0009276
Argument of Perigee144.6122
Mean Anonmoly215.571
Mean Motion14.83200361
Decay Rate7.1E-07
L11 14781U 84021B 20293.76039552 .00000071 00000-0 14796-4 0 9998
L22 14781 97.5908 299.5531 0009276 144.6122 215.5710 14.83200361971252

Live tracking and technical data element details for UOSAT 2 (UO-11) (NORAD 14781). UOSAT 2 (UO-11) can be tracked NOW for your location showing map with azimuth and elevation plus other details from your city location.

Track the satellite on the map from your city or location and see movement details for azimuth, elevation, latitude, longitude, range, height, and movement on the map or in text.







IsCatalogInMostPopularTable: catalog: 14781, numindb: 489
Update: records affected: 1



GetName: 14781 UOSAT 2 (UO-11)

Hit Count: updated at: Tue, 20 Oct 2020 18:00:46 GMT